カタログに戻る

ERS 27

OV5-1

Lost科学HEO
NORAD 2769·PAYLOAD·🇺🇸 United States

打ち上げ Apr 28, 1967 から Cape Canaveral Space Force Station

Loading…

次のパス (今後24時間)

TLE

古いSource: Space-Track

元期: Oct 25, 1985, 22:29 UTC

1 02769U 67040E   85298.93695547 -.00000636  00000-0  10000-3 0  9991
2 02769  37.5137 218.3934 7531709 140.6932 310.2259  0.50941860 23278

AllMySatでERS 27をリアルタイム追跡

Download on the App Store